Regional Weather Roundup
Issued by NWS

Home | Current Version | Previous Version | Text Only | Print | Product List | Glossary On
Versions: 1 2 3 4 5 6 7 8 9 10 11 12 13 14 15 16 17 18 19 20 21 22 23 24 25 26 27 28 29 30 31 32 33 34 35 36 37 38 39 40 41 42 43 44 45 46 47 48 49 50
899
ASUS43 KMKX 041600
RWRWI

WISCONSIN REGIONAL WEATHER ROUNDUP
NATIONAL WEATHER SERVICE MILWAUKEE/SULLIVAN WI
1000 AM CST SUN DEC 04 2016

NOTE: "FAIR" INDICATES FEW OR NO CLOUDS BELOW 12,000 FEET WITH NO
SIGNIFICANT WEATHER AND/OR OBSTRUCTIONS TO VISIBILITY.

WIZ001-002-006>008-014>016-023>028-041700-
NORTHWEST WISCONSIN

CITY           SKY/WX    TMP DP  RH WIND       PRES   REMARKS
SUPERIOR ARPT  LGT SNOW  31  29  93 CALM      29.92F
ASHLAND        LGT SNOW  30  28  92 VRB5      29.96F VSB 3/4 WCI  25
HAYWARD        LGT SNOW  30  27  88 SE9G17    29.92F FOG     WCI  22
SIREN          LGT SNOW  31  29  93 S9        29.90F WCI  23
CUMBERLAND     LGT SNOW  30  28  93 SE9       29.91F WCI  22
RICE LAKE      LGT SNOW  31  29  94 SE12      29.94F WCI  21
CHETEK         LGT SNOW  30  29  96 SE8       29.93F VSB 1   WCI  23
LADYSMITH      LGT SNOW  30  29  94 E10       29.96F VSB 1   WCI  21
EAU CLAIRE     LGT SNOW  30  30 100 SE9       29.93F VSB 1   WCI  22
MENOMONIE      LGT SNOW  32  32  99 SE10      29.93F VSB 1   WCI  24
NEW RICHMOND   LGT SNOW  31  31  97 SE8       29.90F WCI  24
OSCEOLA        LGT SNOW  32  32 100 SE9       29.93F WCI  24
$$

WIZ003>005-009-010-017-018-041700-
NORTH CENTRAL WISCONSIN

CITY           SKY/WX    TMP DP  RH WIND       PRES   REMARKS
MANITOWISH WTR LGT SNOW  27  27 100 S8        29.97S WCI  19
ARBOR VITAE    LGT SNOW  29  27  92 S6        29.98S WCI  23
WOODRUFF       LGT SNOW  29  27  92 S6        29.98S WCI  23
RHINELANDER    LGT SNOW  28  26  92 SE7       29.99F VSB 1   WCI  21
EAGLE RIVER    LGT SNOW  26  23  85 S7        30.00S WCI  19
LAND O LAKES   LGT SNOW  28  25  88 S7        30.00F WCI  21
PHILLIPS       LGT SNOW  27  26  96 SE7       29.95F WCI  20
TOMAHAWK       LGT SNOW  27  25  91 SE3       30.00F
MEDFORD        LGT SNOW  28  26  92 SE8       29.96F WCI  20
MERRILL        LGT SNOW  28  27  95 SE7       30.01F WCI  21
$$

WIZ029-030-035-036-043>047-041700-
CENTRAL WISCONSIN

CITY           SKY/WX    TMP DP  RH WIND       PRES   REMARKS
WAUSAU         LGT SNOW  28  27  96 SE8       30.01F VSB 3/4 WCI  20
MOSINEE        LGT SNOW  28  28 100 SE8       30.02F WCI  20
MARSHFIELD     SNOW      30  27  88 SE9       29.97F VSB 1/2 WCI  22
STEVENS POINT  MIX PCPN  28  28  99 SE6       30.04F WCI  21
WAUPACA        LGT SNOW  32  31  94 SE7       30.07F WCI  26
WAUTOMA        LGT SNOW  31  29  92 SE7       30.06F FOG     WCI  24
WISC RAPIDS    SNOW      30  30 100 SE8       30.02F VSB 1/2 WCI  22
CAMP DOUGLAS   NOT AVBL
$$

WIZ011>013-019>022-031-037>040-048>050-041700-
NORTHEAST WISCONSIN

CITY           SKY/WX    TMP DP  RH WIND       PRES   REMARKS
ANTIGO         LGT SNOW  27  26  96 SE10      30.02F WCI  17
SHAWANO        LGT SNOW  32  29  90 SE6       30.09S WCI  26
OCONTO         CLOUDY    31  29  93 S5        30.10F WCI  26
STURGEON BAY   FLURRIES  31  26  82 S9        30.11F WCI  23
GREEN BAY      LGT SNOW  32  31  96 SE7       30.10F FOG     WCI  26
MANITOWOC      LGT SNOW  32  28  86 SW6       30.12F FOG     WCI  26
APPLETON       LGT SNOW  30  30 100 S8        30.07F WCI  23
CLINTONVILLE   LGT SNOW  32  30  93 SE6       30.08F WCI  26
OSHKOSH        LGT SNOW  31  29  92 S8        30.08F VSB 3/4 WCI  23
$$

WIZ032>034-041-042-053>061-041700-
SOUTHWEST WISCONSIN

CITY           SKY/WX    TMP DP  RH WIND       PRES   REMARKS
LA CROSSE      LGT SNOW  34  32  92 S9        29.97F VSB 1   WCI  27
SPARTA         LGT SNOW  32  31  96 SE6       30.00F WCI  26
VIROQUA        CLOUDY    31  31  99 SE13G18   29.97F VSB 3/4 WCI  21
BOSCOBEL       LGT SNOW  32  29  88 VRB3      30.03F VSB 3/4
PRAIRIE DU CHI LGT SNOW  32  30  93 SE6       30.01F VSB 1   WCI  26
PLATTEVILLE    CLOUDY    31  31 100 SE13      30.03F WCI  21
$$

WIZ056-057-062-063-064-067-068-041700-
SOUTH CENTRAL WISCONSIN

CITY           SKY/WX    TMP DP  RH WIND       PRES   REMARKS
REEDSBURG      MIX PCPN  30  30 100 SE5       30.03F WCI  25
BARABOO/DELLS  LGT SNOW  30  29  96 SE6       30.04F VSB 3/4 WCI  24
LONE ROCK      SNOW      31  29  92 SE7       30.05F VSB 1/2 WCI  24
MINERAL POINT  LGT SNOW  32  32 100 SE12      30.02F VSB 3/4 WCI  23
MADISON        LGT SNOW  30  28  92 SE10      30.06F VSB 3/4 WCI  21
MIDDLETON      CLOUDY    32  32 100 SE8       30.06F VSB 1   WCI  24
WATERTOWN      LGT SNOW  30  30 100 SE6       30.09F WCI  24
MONROE         LGT SNOW  30  30 100 SE10      30.05F VSB 3/4 WCI  21
JANESVILLE     LGT SNOW  32  32 100 SE9       30.07F VSB 3/4 WCI  24
$$

WIZ051-052-058>065-066-070>072-041700-
SOUTHEAST WISCONSIN

CITY           SKY/WX    TMP DP  RH WIND       PRES   REMARKS
MILWAUKEE      CLOUDY    35  26  69 S5        30.10F WCI  31
WAUKESHA       LGT SNOW  28  27  93 SE7       30.11F VSB 1   WCI  21
MILWAUKEE/TIMM LGT SNOW  32  25  74 CALM      30.11F
RACINE         CLOUDY    35  25  66 CALM      30.12F
BURLINGTON     LGT SNOW  31  29  90 CALM      30.10F
KENOSHA        CLOUDY    34  27  75 E6        30.10F WCI  29
FOND DU LAC    LGT SNOW  31  27  85 S9        30.09S VSB 1   WCI  23
SHEBOYGAN      LGT SNOW  32  27  81 S7        30.11F WCI  26
WEST BEND      LGT SNOW  30  28  93 S3        30.10F VSB 1
JUNEAU         LGT SNOW  29  28  96 SE7       30.10S VSB 1   WCI  22
$$

LSZ147-162-041700-
LAKE SUPERIOR

STATION/POSITION TIME  TEMP    WIND        PRES    WAVE
                       AIR SEA DIR/SP/G            HT/PER
                 (UTC) (F)     (DEG/KT/KT) (MB)    (FT/S)
DEVILS ISLAND    1500   32     160/  8/ 11 1016.2F
PORT WING        1540   31     160/  4/  7 1013.9F
SAXON HARBOR     1540   32     170/  4/  7 1014.9F
$$

LMZ867-665-643>646-041700-
LAKE MICHIGAN

STATION/POSITION TIME  TEMP    WIND        PRES    WAVE
                       AIR SEA DIR/SP/G            HT/PER
                 (UTC) (F)     (DEG/KT/KT) (MB)    (FT/S)
CHAMBERS ISLAND  1540   34     190/  2/  6 1019.0F
NORTHPORT PIER   1540   33     180/  1/  4 1019.6F
SISTER BAY       1523   33     210/  8/  9   N/A
ALGOMA LAKESHORE 1521          240/  8/ 10   N/A
KEWAUNEE LAKESHO 1530   30     230/  3/  5 1019.2F
SHEBOYGAN LAKESH 1500   33     220/  6/  7 1020.6F
PORT WASHINGTON  1540   33     200/  5/  7 1021.0S
MILWAUKEE LAKESH 1530   34     190/  4/  5   N/A
S MID LAKE BUOY  1450   38 48  140/  6/ 10 1021.0F   0
KENOSHA   LAKESH 1500   34     220/  3/  4 1020.3
$$

TC  - TEMPERATURE IN CELSIUS
VSB - VISIBILITY IN STATUTE MILES
WCI - WIND CHILL INDEX
HX  - HEAT INDEX





USA.gov is the U.S. government's official web portal to all federal, state and local government web resources and services.